Regional Weather Roundup
Issued by NWS

Home | Current Version | Previous Version | Text Only | Print | Product List | Glossary Off
Versions: 1 2 3 4 5 6 7 8 9 10 11 12 13 14 15 16 17 18 19 20 21 22 23 24 25 26 27 28 29 30 31 32 33 34 35 36 37 38 39 40 41 42 43 44 45 46 47 48 49 50

223
ASUS43 KMKX 170859
RWRWI

WISCONSIN REGIONAL WEATHER ROUNDUP
NATIONAL WEATHER SERVICE MILWAUKEE/SULLIVAN WI
300 AM CST SUN DEC 17 2017

NOTE: "FAIR" INDICATES FEW OR NO CLOUDS BELOW 12,000 FEET WITH NO
SIGNIFICANT WEATHER AND/OR OBSTRUCTIONS TO VISIBILITY.

WIZ001-002-006>008-014>016-023>028-171000-
NORTHWEST WISCONSIN

CITY           SKY/WX    TMP DP  RH WIND       PRES   REMARKS
SUPERIOR ARPT  CLOUDY    21  17  84 CALM      30.14S
ASHLAND        CLOUDY    21  15  78 CALM      30.14S
HAYWARD        CLOUDY    21  18  88 CALM      30.10S
SIREN          CLOUDY    15  13  92 CALM      30.11R
CUMBERLAND     CLOUDY    21  19  93 CALM      30.10R FOG
RICE LAKE      CLOUDY    23  21  92 CALM      30.12R
CHETEK         CLOUDY    23  20  90 E3        30.12R
LADYSMITH      CLOUDY    24  21  89 E5        30.11S WCI  18
EAU CLAIRE     NOT AVBL
MENOMONIE      CLOUDY    26  24  93 E6        30.11S WCI  19
NEW RICHMOND   CLOUDY    21  19  91 CALM      30.11R
OSCEOLA        CLOUDY    18  15  89 CALM      30.15R
$$

WIZ003>005-009-010-017-018-171000-
NORTH CENTRAL WISCONSIN

CITY           SKY/WX    TMP DP  RH WIND       PRES   REMARKS
MANITOWISH WTR CLOUDY    19  19 100 SE3       30.08F FOG
ARBOR VITAE    FOG       22  20  93 SE5       30.09S VSB 1   WCI  15
WOODRUFF       FOG       22  20  93 SE5       30.09S VSB 1   WCI  15
RHINELANDER    CLOUDY    21  20  96 E7        30.10S FOG     WCI  12
EAGLE RIVER    CLOUDY    19  19 100 E6        30.10S FOG     WCI  11
LAND O LAKES   CLOUDY    19  18  95 SE5       30.12S WCI  12
PHILLIPS       CLOUDY    20  20 100 E6        30.08F WCI  13
TOMAHAWK       CLOUDY    21  20  95 E3        30.10R
MEDFORD        CLOUDY    22  19  91 SE5       30.09R WCI  15
MERRILL        CLOUDY    22  20  94 E3        30.12R
$$

WIZ029-030-035-036-043>047-171000-
CENTRAL WISCONSIN

CITY           SKY/WX    TMP DP  RH WIND       PRES   REMARKS
WAUSAU         CLOUDY    21  19  92 E6        30.10R WCI  13
MOSINEE        CLOUDY    21  21 100 E6        30.11R WCI  14
MARSHFIELD     CLOUDY    23  20  88 E8        30.09S WCI  14
STEVENS POINT  CLOUDY    20  19  96 NE5       30.11F WCI  14
WAUPACA        CLOUDY    26  21  83 NE3       30.13F
WAUTOMA        CLOUDY    25  22  88 NE7       30.13S WCI  17
WISC RAPIDS    CLOUDY    24  19  81 E8        30.12S WCI  15
CAMP DOUGLAS   CLOUDY   N/A N/A N/A E3        30.11R
$$

WIZ011>013-019>022-031-037>040-048>050-171000-
NORTHEAST WISCONSIN

CITY           SKY/WX    TMP DP  RH WIND       PRES   REMARKS
ANTIGO         CLOUDY    20  20  98 E8        30.11R WCI  11
SHAWANO        CLOUDY    23  20  88 CALM      30.17R
OCONTO         CLOUDY    23  20  89 N3        30.17R
STURGEON BAY   CLOUDY    28  24  85 E6        30.17R WCI  22
GREEN BAY      CLOUDY    27  21  78 N9        30.13F WCI  18
MANITOWOC      CLOUDY    30  27  88 NE5       30.14F WCI  25
APPLETON       CLOUDY    27  21  80 NE8       30.10F WCI  18
CLINTONVILLE   NOT AVBL
OSHKOSH        CLOUDY    28  25  88 E6        30.11F WCI  22
$$

WIZ032>034-041-042-053>061-171000-
SOUTHWEST WISCONSIN

CITY           SKY/WX    TMP DP  RH WIND       PRES   REMARKS
LA CROSSE      CLOUDY    29  25  85 E5        30.10R WCI  24
SPARTA         CLOUDY    27  24  91 CALM      30.11R
VIROQUA        CLOUDY    27  27 100 CALM      30.05F
BOSCOBEL       CLOUDY    32  27  81 E5        30.10R WCI  27
PRAIRIE DU CHI CLOUDY    32  28  84 E5        30.09R WCI  27
PLATTEVILLE    CLOUDY    31  31 100 E14       30.06R WCI  21
$$

WIZ056-057-062-063-064-067-068-171000-
SOUTH CENTRAL WISCONSIN

CITY           SKY/WX    TMP DP  RH WIND       PRES   REMARKS
REEDSBURG      CLOUDY    28  25  89 NE5       30.08F WCI  22
BARABOO/DELLS  CLOUDY    28  24  86 NE5       30.08F WCI  23
LONE ROCK      CLOUDY    31  29  92 E8        30.10S FOG     WCI  23
MINERAL POINT  CLOUDY    32  32 100 E10       30.06R FOG     WCI  24
MADISON        CLOUDY    31  28  89 NE6       30.10S WCI  25
MIDDLETON      CLOUDY    32  30  92 E6        30.09F WCI  26
WATERTOWN      CLOUDY    32  32 100 E8        30.09S WCI  25
MONROE         CLOUDY    32  32 100 NE7       30.06R FOG     WCI  26
JANESVILLE     CLOUDY    34  34 100 E9        30.07S FOG     WCI  26
$$

WIZ051-052-058>065-066-070>072-171000-
SOUTHEAST WISCONSIN

CITY           SKY/WX    TMP DP  RH WIND       PRES   REMARKS
MILWAUKEE      CLOUDY    35  31  85 NE10      30.10F WCI  27
WAUKESHA       CLOUDY    32  28  86 E8        30.10F WCI  25
MILWAUKEE/TIMM CLOUDY    32  28  86 E8        30.11F WCI  25
RACINE         CLOUDY    35  32  88 NE7       30.10F WCI  29
BURLINGTON     CLOUDY    50  50 100 E7        30.09F
KENOSHA        CLOUDY    35  31  85 NE8       30.08F WCI  29
FOND DU LAC    CLOUDY    30  25  81 E6        30.11F WCI  24
SHEBOYGAN      CLOUDY    31  28  89 E6        30.12S WCI  25
WEST BEND      CLOUDY    32  30  93 E6        30.11R WCI  26
JUNEAU         CLOUDY    30  28  93 NE5       30.09F WCI  25
$$

LSZ147-162-171000-
LAKE SUPERIOR

STATION/POSITION TIME  TEMP    WIND        PRES    WAVE
                       AIR SEA DIR/SP/G            HT/PER
                 (UTC) (F)     (DEG/KT/KT) (MB)    (FT/S)
DEVILS ISLAND    0800   25     210/  8/ 12 1021.6F
SAXON HARBOR     0830   24                 1020.3S
$$

LMZ867-665-643>646-171000-
LAKE MICHIGAN

STATION/POSITION TIME  TEMP    WIND        PRES    WAVE
                       AIR SEA DIR/SP/G            HT/PER
                 (UTC) (F)     (DEG/KT/KT) (MB)    (FT/S)
NORTHPORT PIER   0840   28      80/ 12/ 17 1022.0S
KEWAUNEE LAKESHO 0830   31      80/  6/  9 1020.3R
SHEBOYGAN LAKESH 0800   32     100/ 11/ 12 1021.0R
PORT WASHINGTON  0840   34      90/ 11/ 12 1020.7F
MILWAUKEE LAKESH 0830   34      70/ 11/ 14   N/A
KENOSHA   LAKESH 0800   36      70/ 11/ 12 1019.3
$$

TC  - TEMPERATURE IN CELSIUS
VSB - VISIBILITY IN STATUTE MILES
WCI - WIND CHILL INDEX
HX  - HEAT INDEX





USA.gov is the U.S. government's official web portal to all federal, state and local government web resources and services.